SR9NSK-1 Weather Reports


time (UTC)temp
C
wind
direction
speed
KPH
gust
KPH
rain 1hr
cm
rain 24hr
cm
rain mn
cm
humidity
%
barometer
mb
20260905195324 10 270 27.4 48.3 0.00 0.00 0.00 74 879.5
20260905195123 10 272 22.5 40.2 0.00 0.00 0.00 74 879.5
20260905194923 10 263 24.1 37.0 0.00 0.00 0.00 74 879.5
20260905194723 10 269 25.7 40.2 0.00 0.00 0.00 74 879.5
20260905194521 10 266 27.4 40.2 0.00 0.00 0.00 74 879.5
20260905194321 10 261 22.5 38.6 0.00 0.00 0.00 74 879.4
20260905194121 10 269 22.5 43.5 0.00 0.00 0.00 74 879.4
20260905193921 10 267 24.1 43.5 0.00 0.00 0.00 74 879.4
20260905193722 10 278 24.1 40.2 0.00 0.00 0.00 74 879.4
20260905193519 10 278 27.4 62.8 0.00 0.00 0.00 74 879.4
20260905193319 10 279 24.1 62.8 0.00 0.00 0.00 74 879.3
20260905193119 10 278 27.4 40.2 0.00 0.00 0.00 74 879.3
20260905192920 10 273 27.4 45.1 0.00 0.00 0.00 74 879.3
20260905192719 10 271 29.0 45.1 0.00 0.00 0.00 74 879.3
20260905192517 10 277 27.4 40.2 0.00 0.00 0.00 74 879.3
20260905192317 10 268 27.4 40.2 0.00 0.00 0.00 74 879.2
20260905192117 10 270 29.0 45.1 0.00 0.00 0.00 74 879.2
20260905191917 10 273 27.4 38.6 0.00 0.00 0.00 74 879.2
20260905191717 10 270 22.5 32.2 0.00 0.00 0.00 74 879.3
20260905191517 10 270 22.5 32.2 0.00 0.00 0.00 74 879.3
20260905191317 10 269 27.4 38.6 0.00 0.00 0.00 74 879.3
20260905191117 10 270 27.4 38.6 0.00 0.00 0.00 74 879.3
20260905190916 10 272 25.7 41.8 0.00 0.00 0.00 74 879.3
20260905190716 10 271 27.4 41.8 0.00 0.00 0.00 74 879.3
20260905190514 10 267 24.1 32.2 0.00 0.00 0.00 74 879.3
20260905190314 10 268 27.4 40.2 0.00 0.00 0.00 74 879.3
20260905190114 10 273 25.7 40.2 0.00 0.00 0.00 74 879.2
20260905185915 10 277 25.7 41.8 0.00 0.00 0.00 74 879.2
20260905185715 10 273 27.4 35.4 0.00 0.00 0.00 74 879.3
20260905185515 10 274 27.4 40.2 0.00 0.00 0.00 74 879.2
20260905185315 10 277 25.7 40.2 0.00 0.00 0.00 74 879.2
20260905185115 10 274 25.7 51.5 0.00 0.00 0.00 74 879.2
20260905184915 10 275 25.7 38.6 0.00 0.00 0.00 74 879.2
20260905184715 10 261 25.7 38.6 0.00 0.00 0.00 74 879.1
20260905184513 10 265 20.9 38.6 0.00 0.00 0.00 74 879.1
20260905184313 10 270 24.1 38.6 0.00 0.00 0.00 74 879.1
20260905184113 10 275 27.4 38.6 0.00 0.00 0.00 74 879.0
20260905183913 10 274 32.2 45.1 0.00 0.00 0.00 74 879.0
20260905183714 10 266 32.2 48.3 0.00 0.00 0.00 74 879.0
20260905183513 10 259 30.6 48.3 0.00 0.00 0.00 74 879.0
20260905183313 10 266 29.0 40.2 0.00 0.00 0.00 74 879.0
20260905183113 10 270 29.0 40.2 0.00 0.00 0.00 74 879.0
20260905182913 10 270 32.2 49.9 0.00 0.00 0.00 74 879.0
20260905182711 10 268 27.4 48.3 0.00 0.00 0.00 74 879.1
20260905182600 10 268 25.7 43.5 0.00 0.00 0.00 74 879.1
20260905182509 10 268 25.7 43.5 0.00 0.00 0.00 74 879.1
20260905182309 10 269 25.7 46.7 0.00 0.00 0.00 74 879.1
20260905182109 10 271 27.4 46.7 0.00 0.00 0.00 74 879.0
20260905181909 10 263 30.6 46.7 0.00 0.00 0.00 74 879.0
20260905181709 10 258 32.2 43.5 0.00 0.00 0.00 74 879.0
20260905181459 10 267 30.6 48.3 0.00 0.00 0.00 74 879.0
20260905181259 10 270 29.0 53.1 0.00 0.00 0.00 74 879.0
20260905181059 10 276 29.0 53.1 0.00 0.00 0.00 75 879.0
20260905180859 10 267 25.7 38.6 0.00 0.00 0.00 75 879.0
20260905180659 10 267 27.4 38.6 0.00 0.00 0.00 75 879.0
20260905180457 10 254 25.7 43.5 0.00 0.00 0.00 75 879.0
20260905180257 10 258 25.7 43.5 0.00 0.00 0.00 75 879.0
20260905180057 10 265 20.9 30.6 0.00 0.00 0.00 75 879.0
20260905175857 10 265 25.7 38.6 0.00 0.00 0.00 75 879.0
20260905175658 10 259 22.5 38.6 0.00 0.00 0.00 75 879.0
20260905175455 10 262 20.9 30.6 0.00 0.00 0.00 75 879.0
20260905175256 10 267 22.5 32.2 0.00 0.00 0.00 75 879.0
20260905175056 10 263 22.5 37.0 0.00 0.00 0.00 75 878.9
20260905175032 10 263 25.7 45.1 0.00 0.00 0.00 75 878.9
20260905174856 10 263 25.7 45.1 0.00 0.00 0.00 75 878.9
20260905174655 10 260 27.4 41.8 0.00 0.00 0.00 75 878.8
20260905174453 10 265 24.1 41.8 0.00 0.00 0.00 74 878.8
20260905174253 10 258 22.5 35.4 0.00 0.00 0.00 74 878.8
20260905174053 10 264 27.4 38.6 0.00 0.00 0.00 74 878.8
20260905173853 10 266 25.7 38.6 0.00 0.00 0.00 74 878.8
20260905173654 -17 269 20.9 27.4 0.00 0.00 0.00 74 878.8
20260905173453 10 270 25.7 37.0 0.00 0.00 0.00 74 878.7
20260905173253 10 270 27.4 37.0 0.00 0.00 0.00 74 878.7
20260905173053 10 266 25.7 32.2 0.00 0.00 0.00 74 878.7
20260905172853 10 268 25.7 46.7 0.00 0.00 0.00 74 878.7
20260905172653 10 272 25.7 46.7 0.00 0.00 0.00 74 878.7
20260905172451 10 270 27.4 45.1 0.00 0.00 0.00 74 878.7
20260905172251 10 271 27.4 45.1 0.00 0.00 0.00 74 878.7
20260905172051 10 267 29.0 40.2 0.00 0.00 0.00 74 878.7
20260905171847 10 271 25.7 40.2 0.00 0.00 0.00 74 878.7
20260905171647 10 269 27.4 37.0 0.00 0.00 0.00 74 878.6
20260905171247 10 276 27.4 37.0 0.00 0.00 0.00 74 878.6
20260905171047 10 266 27.4 40.2 0.00 0.00 0.00 74 878.6
20260905170848 10 263 25.7 40.2 0.00 0.00 0.00 74 878.6
20260905170647 10 263 25.7 38.6 0.00 0.00 0.00 74 878.6
20260905170445 10 270 25.7 38.6 0.00 0.00 0.00 74 878.6
20260905170245 10 270 27.4 40.2 0.00 0.00 0.00 74 878.5
20260905170045 10 269 29.0 51.5 0.00 0.00 0.00 74 878.5
20260905165846 10 259 30.6 45.1 0.00 0.00 0.00 74 878.5
20260905165646 10 263 32.2 45.1 0.00 0.00 0.00 74 878.4
20260905165446 10 261 32.2 45.1 0.00 0.00 0.00 74 878.4
20260905165246 10 264 27.4 41.8 0.00 0.00 0.00 74 878.3
20260905165045 10 258 27.4 41.8 0.00 0.00 0.00 74 878.3
20260905164845 10 257 27.4 46.7 0.00 0.00 0.00 74 878.3
20260905164645 10 253 25.7 35.4 0.00 0.00 0.00 74 878.3
20260905164443 11 268 22.5 35.4 0.00 0.00 0.00 74 878.4
20260905164243 11 275 24.1 35.4 0.00 0.00 0.00 74 878.3
20260905164043 11 269 27.4 46.7 0.00 0.00 0.00 74 878.3
20260905163843 11 267 27.4 46.7 0.00 0.00 0.00 74 878.3
20260905163643 11 270 29.0 45.1 0.00 0.00 0.00 74 878.3
20260905163443 11 264 27.4 45.1 0.00 0.00 0.00 74 878.3
20260905163243 11 266 29.0 43.5 0.00 0.00 0.00 74 878.2
20260905163043 11 268 27.4 38.6 0.00 0.00 0.00 74 878.1
20260905162843 11 269 30.6 40.2 0.00 0.00 0.00 74 878.1
20260905162643 11 264 33.8 54.7 0.00 0.00 0.00 74 878.1
20260905162441 11 263 27.4 46.7 0.00 0.00 0.00 74 878.1
20260905162241 11 269 27.4 38.6 0.00 0.00 0.00 74 878.1
20260905162042 11 267 29.0 38.6 0.00 0.00 0.00 74 878.1
20260905161841 11 261 27.4 37.0 0.00 0.00 0.00 74 878.0
20260905161641 11 263 32.2 45.1 0.00 0.00 0.00 74 878.0
20260905161441 11 259 35.4 48.3 0.00 0.00 0.00 74 877.9
20260905161241 11 257 33.8 48.3 0.00 0.00 0.00 74 877.9
20260905161039 11 253 30.6 48.3 0.00 0.00 0.00 74 878.0
20260905160839 11 261 25.7 40.2 0.00 0.00 0.00 74 878.0
20260905160639 12 261 22.5 37.0 0.00 0.00 0.00 74 878.1
20260905160437 12 258 17.7 29.0 0.00 0.00 0.00 74 878.1
20260905160237 12 248 25.7 41.8 0.00 0.00 0.00 74 878.0
20260905160037 12 248 30.6 49.9 0.00 0.00 0.00 74 878.0
20260905155837 12 251 25.7 49.9 0.00 0.00 0.00 74 878.0
20260905155638 12 257 22.5 40.2 0.00 0.00 0.00 74 878.0
20260905155436 12 256 22.5 37.0 0.00 0.00 0.00 74 877.9
20260905155236 12 260 27.4 43.5 0.00 0.00 0.00 74 877.9
20260905155036 12 264 27.4 38.6 0.00 0.00 0.00 74 877.9
20260905154836 12 258 27.4 38.6 0.00 0.00 0.00 74 877.9
20260905154636 12 260 30.6 45.1 0.00 0.00 0.00 74 877.9
20260905154425 12 256 30.6 43.5 0.00 0.00 0.00 74 877.9
20260905154225 12 261 27.4 45.1 0.00 0.00 0.00 75 877.8
20260905154025 12 261 29.0 48.3 0.00 0.00 0.00 75 877.9
20260905153825 11 262 27.4 37.0 0.00 0.00 0.00 75 877.8
20260905153625 11 265 29.0 48.3 0.00 0.00 0.00 75 877.9
20260905153425 11 267 27.4 48.3 0.00 0.00 0.00 76 877.9
20260905153225 11 261 25.7 38.6 0.00 0.00 0.00 76 877.9
20260905153025 11 256 30.6 41.8 0.00 0.00 0.00 76 877.9
20260905152825 11 258 29.0 41.8 0.00 0.00 0.00 76 877.8
20260905152625 11 266 25.7 38.6 0.00 0.00 0.00 76 877.8
20260905152423 12 262 29.0 41.8 0.00 0.00 0.00 75 877.8
20260905152223 12 262 24.1 38.6 0.00 0.00 0.00 76 877.8
20260905152023 12 255 24.1 35.4 0.00 0.00 0.00 75 877.7
20260905151823 -17 263 27.4 43.5 0.00 0.00 0.00
20260905151623 12 257 25.7 32.2 0.00 0.00 0.00 76 877.8
20260905151423 12 250 27.4 41.8 0.00 0.00 0.00 76 877.7
20260905151222 12 256 29.0 38.6 0.00 0.00 0.00 75 877.8
20260905151022 12 265 22.5 37.0 0.00 0.00 0.00 76 877.8
20260905150822 12 268 20.9 30.6 0.00 0.00 0.00 76 877.8
20260905150622 12 264 25.7 32.2 0.00 0.00 0.00 76 877.8
20260905150420 12 262 25.7 40.2 0.00 0.00 0.00 76 877.8
20260905150218 12 250 25.7 43.5 0.00 0.00 0.00 76 877.8
20260905150018 12 256 25.7 48.3 0.00 0.00 0.00 76 877.7
20260905145818 12 256 29.0 48.3 0.00 0.00 0.00 77 877.7
20260905145618 12 261 24.1 41.8 0.00 0.00 0.00 77 877.7
20260905145418 11 263 24.1 41.8 0.00 0.00 0.00 77 877.8
20260905145218 11 262 25.7 37.0 0.00 0.00 0.00 77 877.7
20260905145018 11 257 25.7 35.4 0.00 0.00 0.00 77 877.7
20260905144818 11 252 22.5 35.4 0.00 0.00 0.00 77 877.8
20260905144618 11 249 27.4 41.8 0.00 0.00 0.00 77 877.7
20260905144416 11 253 32.2 41.8 0.00 0.00 0.00 77 877.6
20260905144216 11 265 25.7 40.2 0.00 0.00 0.00 77 877.7
20260905144015 11 255 25.7 45.1 0.00 0.00 0.00 77 877.7
20260905143815 11 245 27.4 45.1 0.00 0.00 0.00 78 877.7
20260905143615 11 246 20.9 30.6 0.00 0.00 0.00 78 877.8
20260905143415 11 241 27.4 40.2 0.00 0.00 0.00 78 877.8
20260905143215 11 247 22.5 40.2 0.00 0.00 0.00 78 877.8
20260905143015 11 255 20.9 40.2 0.00 0.00 0.00 78 877.8
20260905142815 11 257 22.5 40.2 0.00 0.00 0.00 78 877.8
20260905142615 11 250 29.0 37.0 0.00 0.00 0.00 78 877.8
20260905142413 11 255 27.4 37.0 0.00 0.00 0.00 78 877.8
20260905142213 11 262 24.1 35.4 0.00 0.00 0.00 78 877.8
20260905142014 11 263 22.5 32.2 0.00 0.00 0.00 78 877.9
20260905141813 11 260 20.9 32.2 0.00 0.00 0.00 78 877.9
20260905141613 11 266 19.3 24.1 0.00 0.00 0.00 78 877.9
20260905141413 11 254 22.5 43.5 0.00 0.00 0.00 78 877.9
20260905141214 11 246 25.7 43.5 0.00 0.00 0.00 78 877.9
20260905141013 11 254 24.1 32.2 0.00 0.00 0.00 79 878.0
20260905140813 11 253 20.9 30.6 0.00 0.00 0.00 79 878.0
20260905140613 11 262 22.5 32.2 0.00 0.00 0.00 79 878.0
20260905140411 11 258 17.7 27.4 0.00 0.00 0.00 79 878.0
20260905140211 11 256 20.9 32.2 0.00 0.00 0.00 79 878.0
20260905140011 11 252 19.3 27.4 0.00 0.00 0.00 79 878.0
20260905135811 11 243 22.5 32.2 0.00 0.00 0.00 79 878.0
20260905135611 11 247 24.1 30.6 0.00 0.00 0.00 79 878.0
20260905135409 11 241 22.5 32.2 0.00 0.00 0.00 79 878.0
20260905135209 11 245 24.1 35.4 0.00 0.00 0.00 79 878.0
20260905135009 11 253 19.3 35.4 0.00 0.00 0.00 79 878.0
20260905134809 11 261 25.7 43.5 0.00 0.00 0.00 79 877.9
20260905134407 11 248 20.9 29.0 0.00 0.00 0.00 79 877.9
20260905134206 11 247 24.1 33.8 0.00 0.00 0.00 79 877.9
20260905134006 11 256 24.1 33.8 0.00 0.00 0.00 80 877.9
20260905133806 11 259 24.1 38.6 0.00 0.00 0.00 80 877.9
20260905133606 11 252 29.0 38.6 0.00 0.00 0.00 80 877.9
20260905133407 11 253 25.7 38.6 0.00 0.00 0.00 80 877.9
20260905133207 11 251 22.5 29.0 0.00 0.00 0.00 81 877.9
20260905133007 11 249 22.5 29.0 0.00 0.00 0.00 80 878.0
20260905132807 11 249 22.5 30.6 0.00 0.00 0.00 80 878.0
20260905132606 11 252 24.1 33.8 0.00 0.00 0.00 80 877.9
20260905132404 11 248 27.4 38.6 0.00 0.00 0.00 80 877.9
20260905132204 11 255 27.4 40.2 0.00 0.00 0.00 80 877.9
20260905132005 11 258 24.1 40.2 0.00 0.00 0.00 80 877.9
20260905131804 11 256 22.5 33.8 0.00 0.00 0.00 80 878.0
20260905131605 11 250 25.7 40.2 0.00 0.00 0.00 80 877.9
20260905131355 11 252 25.7 37.0 0.00 0.00 0.00 80 877.9
20260905131155 11 246 25.7 37.0 0.00 0.00 0.00 79 877.8
20260905130955 11 244 24.1 37.0 0.00 0.00 0.00 80 877.9
20260905130755 11 250 22.5 32.2 0.00 0.00 0.00 80 877.9
20260905130555 11 241 20.9 32.2 0.00 0.00 0.00 80 877.9
20260905130353 11 242 20.9 32.2 0.00 0.00 0.00 80 877.9
20260905130153 11 253 20.9 27.4 0.00 0.00 0.00 80 877.9
20260905125953 11 253 19.3 27.4 0.00 0.00 0.00 81 877.9
20260905125753 11 253 20.9 32.2 0.00 0.00 0.00 81 877.9
20260905125553 11 259 16.1 22.5 0.00 0.00 0.00 81 877.9
20260905125353 11 251 20.9 32.2 0.00 0.00 0.00 80 878.0
20260905125153 11 244 25.7 32.2 0.00 0.00 0.00 80 878.0
20260905124953 11 258 20.9 35.4 0.00 0.00 0.00 80 878.0
20260905124753 11 259 19.3 35.4 0.00 0.00 0.00 80 878.0
20260905124551 11 265 19.3 38.6 0.00 0.00 0.00 81 878.0
20260905124349 11 248 20.9 38.6 0.00 0.00 0.00 81 878.0
20260905124149 11 248 17.7 27.4 0.00 0.00 0.00 81 877.9
20260905123949 11 252 19.3 30.6 0.00 0.00 0.00 81 877.9
20260905123749 11 249 22.5 30.6 0.00 0.00 0.00 81 877.9
20260905123549 11 241 22.5 30.6 0.00 0.00 0.00 81 878.0
20260905123349 11 253 22.5 33.8 0.00 0.00 0.00 81 878.0
20260905123149 11 264 22.5 33.8 0.00 0.00 0.00 81 877.9
20260905122949 11 250 22.5 33.8 0.00 0.00 0.00 81 877.9
20260905122749 11 255 19.3 29.0 0.00 0.00 0.00 81 877.9
20260905122549 11 253 22.5 37.0 0.00 0.00 0.00 81 878.0
20260905122347 11 253 19.3 37.0 0.00 0.00 0.00 82 878.0
20260905122147 11 264 16.1 25.7 0.00 0.00 0.00 82 878.0
20260905121947 10 263 17.7 27.4 0.00 0.00 0.00 82 878.0
20260905121747 10 255 16.1 22.5 0.00 0.00 0.00 82 878.0
20260905121547 10 262 20.9 30.6 0.00 0.00 0.00 82 878.0
20260905121345 10 267 19.3 29.0 0.00 0.00 0.00 82 878.0
20260905121145 10 263 19.3 30.6 0.00 0.00 0.00 82 878.0
20260905120945 11 259 19.3 29.0 0.00 0.00 0.00 82 878.0
20260905120745 11 258 17.7 29.0 0.00 0.00 0.00 82 878.0
20260905120545 11 245 20.9 27.4 0.00 0.00 0.00 82 878.0
20260905120343 11 252 22.5 30.6 0.00 0.00 0.00 82 878.0
20260905120143 11 265 14.5 30.6 0.00 0.00 0.00 82 878.0
20260905115943 11 258 12.9 19.3 0.00 0.00 0.00 82 878.0
20260905115743 11 243 16.1 30.6 0.00 0.00 0.00 82 878.0
20260905115543 11 273 14.5 30.6 0.00 0.00 0.00 82 878.0
20260905115343 11 266 16.1 32.2 0.00 0.00 0.00 82 878.0
20260905115218 11 257 14.5 32.2 0.00 0.00 0.00 82 878.1
20260905115144 11 257 14.5 32.2 0.00 0.00 0.00 82 878.1
20260905114944 11 259 11.3 20.9 0.00 0.00 0.00 82 878.0
20260905114744 11 255 19.3 30.6 0.00 0.00 0.00 82 877.9
20260905114544 11 250 17.7 30.6 0.00 0.00 0.00 82 877.9
20260905114342 11 253 16.1 22.5 0.00 0.00 0.00 82 878.0
20260905114142 11 248 16.1 22.5 0.00 0.00 0.00 82 878.0
20260905113942 11 251 19.3 32.2 0.00 0.00 0.00 82 878.0
20260905113740 11 253 17.7 27.4 0.00 0.00 0.00 83 877.9
20260905113540 10 253 17.7 29.0 0.00 0.00 0.00 83 878.0
20260905113340 10 253 16.1 32.2 0.00 0.00 0.00 83 878.0
20260905113140 10 256 11.3 20.9 0.00 0.00 0.00 83 878.0
20260905112940 10 256 17.7 30.6 0.00 0.00 0.00 83 877.9
20260905112740 10 258 14.5 22.5 0.00 0.00 0.00 83 877.9
20260905112540 10 248 16.1 25.7 0.00 0.00 0.00 84 878.0
20260905112338 10 249 14.5 24.1 0.00 0.00 0.00 84 878.0
20260905112138 10 260 16.1 25.7 0.00 0.00 0.00 84 878.0
20260905111938 10 260 16.1 25.7 0.00 0.00 0.00 84 878.0
20260905111738 10 250 14.5 25.7 0.00 0.00 0.00 84 878.0
20260905111538 10 248 14.5 33.8 0.00 0.00 0.00 84 878.0
20260905111338 10 252 14.5 33.8 0.00 0.00 0.00 84 878.0
20260905111230 10 259 16.1 24.1 0.00 0.00 0.00 84 878.0
20260905111138 10 259 16.1 24.1 0.00 0.00 0.00 84 878.0
20260905110938 10 248 17.7 33.8 0.00 0.00 0.00 84 878.0
20260905110738 10 244 17.7 33.8 0.00 0.00 0.00 84 877.9
20260905110538 10 240 16.1 22.5 0.00 0.00 0.00 84 878.0
20260905110336 10 260 17.7 27.4 0.00 0.00 0.00 84 878.0
20260905110136 10 260 16.1 25.7 0.00 0.00 0.00 84 878.0
20260905105936 10 263 17.7 29.0 0.00 0.00 0.00 85 877.9
20260905105536 10 247 17.7 27.4 0.00 0.00 0.00 85 877.9
20260905105336 10 246 17.7 27.4 0.00 0.00 0.00 85 877.9
20260905105136 10 257 9.7 19.3 0.00 0.00 0.00 85 877.9
20260905104936 9 270 9.7 25.7 0.00 0.00 0.00 85 877.9
20260905104824 9 270 16.1 29.0 0.00 0.00 0.00 85 877.8
20260905104737 9 270 16.1 29.0 0.00 0.00 0.00 85 877.8
20260905104536 10 266 22.5 40.2 0.00 0.00 0.00 85 877.8
20260905104324 10 253 24.1 37.0 0.00 0.00 0.00 85 877.8
20260905104124 10 254 19.3 30.6 0.00 0.00 0.00 85 877.8
20260905103924 10 267 17.7 27.4 0.00 0.00 0.00 85 877.8
20260905103724 10 276 17.7 30.6 0.00 0.00 0.00 86 877.8
20260905103524 10 270 19.3 29.0 0.00 0.00 0.00 86 877.8
20260905103324 10 263 16.1 29.0 0.00 0.00 0.00 86 877.8
20260905103124 9 257 17.7 33.8 0.00 0.00 0.00 86 877.9
20260905102922 9 270 16.1 24.1 0.00 0.00 0.00 86 877.9
20260905102845 9 275 12.9 22.5 0.00 0.00 0.00 86 877.9
20260905102722 9 275 12.9 22.5 0.00 0.00 0.00 86 877.9
20260905102522 9 264 11.3 22.5 0.00 0.00 0.00 86 877.9
20260905102321 9 253 14.5 22.5 0.00 0.00 0.00 86 877.8
20260905102121 9 260 16.1 25.7 0.00 0.00 0.00 86 877.8
20260905101921 9 271 16.1 20.9 0.00 0.00 0.00 86 877.8
20260905101721 9 267 16.1 24.1 0.00 0.00 0.00 86 877.8
20260905101521 9 252 14.5 20.9 0.00 0.00 0.00 86 877.8
20260905101320 10 262 12.9 22.5 0.00 0.00 0.00 87 877.8
20260905101120 9 249 12.9 22.5 0.00 0.00 0.00 87 877.7
20260905100920 9 241 14.5 22.5 0.00 0.00 0.00 86 877.7
20260905100720 9 254 14.5 22.5 0.00 0.00 0.00 87 877.7
20260905100520 9 260 19.3 29.0 0.00 0.00 0.00 87 877.7
20260905100318 9 258 19.3 33.8 0.00 0.00 0.00 87 877.7
20260905100148 8 240 19.3 32.2 0.00 0.00 0.00 87 877.6
20260905100118 8 248 19.3 32.2 0.00 0.00 0.00 87 877.6
20260905095918 8 240 19.3 32.2 0.00 0.00 0.00 87 877.6
20260905095718 8 244 19.3 32.2 0.00 0.00 0.00 87 877.6
20260905095518 8 258 19.3 29.0 0.00 0.00 0.00 87 877.6
20260905095318 8 264 16.1 22.5 0.00 0.00 0.00 87 877.6
20260905095118 8 254 16.1 27.4 0.00 0.00 0.00 87 877.5
20260905094918 8 241 16.1 37.0 0.00 0.00 0.00 87 877.6
20260905094718 8 239 17.7 38.6 0.00 0.00 0.00 87 877.6
20260905094518 8 248 17.7 38.6 0.00 0.00 0.00 87 877.6
20260905094316 8 267 16.1 27.4 0.00 0.00 0.00 87 877.6
20260905094116 8 262 17.7 27.4 0.00 0.00 0.00 87 877.6
20260905093916 8 248 14.5 25.7 0.00 0.00 0.00 87 877.6
20260905093716 8 238 16.1 29.0 0.00 0.00 0.00 88 877.6
20260905093516 8 249 16.1 29.0 0.00 0.00 0.00 88 877.6
20260905093316 8 243 14.5 22.5 0.00 0.00 0.00 88 877.6
20260905093115 8 244 14.5 27.4 0.00 0.00 0.00 88 877.6
20260905092915 8 250 12.9 20.9 0.00 0.00 0.00 88 877.6
20260905092715 8 255 12.9 24.1 0.00 0.00 0.00 88 877.6
20260905092515 8 263 16.1 24.1 0.00 0.00 0.00 88 877.5
20260905092313 8 255 16.1 25.7 0.00 0.00 0.00 88 877.5
20260905092110 8 252 17.7 30.6 0.00 0.00 0.00 88 877.5
20260905091910 8 251 22.5 35.4 0.00 0.00 0.00 88 877.5
20260905091710 8 255 19.3 32.2 0.00 0.00 0.00 88 877.5
20260905091510 8 250 20.9 32.2 0.00 0.00 0.00 88 877.5
20260905091311 8 253 20.9 35.4 0.00 0.00 0.00 88 877.5
20260905091111 8 251 17.7 27.4 0.00 0.00 0.00 88 877.5
20260905090911 8 251 17.7 33.8 0.00 0.00 0.00 88 877.4
20260905090711 8 258 22.5 32.2 0.00 0.00 0.00 88 877.4
20260905090511 7 256 20.9 30.6 0.00 0.00 0.00 88 877.4
20260905090309 7 254 22.5 32.2 0.00 0.00 0.00 88 877.4
20260905090109 7 250 19.3 32.2 0.00 0.00 0.00 88 877.4
20260905085908 7 249 22.5 33.8 0.00 0.00 0.00 88 877.5
20260905085711 7 254 20.9 33.8 0.00 0.00 0.00 88 877.6
20260905085508 7 257 19.3 32.2 0.00 0.00 0.00 87 877.7
20260905085308 7 243 19.3 32.2 0.00 0.00 0.00 88 877.6
20260905085108 7 247 22.5 33.8 0.00 0.00 0.00 88 877.5
20260905084908 7 246 20.9 27.4 0.00 0.00 0.00 88 877.5
20260905084708 7 247 19.3 27.4 0.00 0.00 0.00 88 877.4
20260905084508 7 255 17.7 24.1 0.00 0.00 0.00 88 877.4
20260905084306 7 245 20.9 38.6 0.00 0.00 0.00 88 877.3
20260905084128 7 256 19.3 30.6 0.00 0.00 0.00 88 877.4
20260905084106 7 244 17.7 29.0 0.00 0.00 0.00 88 877.3
20260905083906 7 256 19.3 30.6 0.00 0.00 0.00 88 877.4
20260905083706 7 255 22.5 32.2 0.00 0.00 0.00 87 877.3
20260905083647 7 251 20.9 32.2 0.00 0.00 0.00 87 877.2
20260905083506 7 251 20.9 32.2 0.00 0.00 0.00 87 877.2
20260905083306 7 249 17.7 25.7 0.00 0.00 0.00 87 877.2
20260905083106 7 253 20.9 25.7 0.00 0.00 0.00 88 877.2
20260905082906 7 248 22.5 33.8 0.00 0.00 0.00 88 877.2
20260905082706 7 249 25.7 35.4 0.00 0.00 0.00 87 877.3
20260905082307 7 246 22.5 30.6 0.00 0.00 0.00 88 877.1
20260905082104 7 250 24.1 43.5 0.00 0.00 0.00 87 877.2
20260905081904 7 258 25.7 43.5 0.00 0.00 0.00 87 877.2
20260905081704 7 246 27.4 33.8 0.00 0.00 0.00 87 877.1
20260905081504 7 247 25.7 35.4 0.00 0.00 0.00 87 876.9
20260905081253 7 246 24.1 35.4 0.00 0.00 0.00 87 876.8
20260905081053 7 236 24.1 35.4 0.00 0.00 0.00 87 876.8
20260905080853 7 238 22.5 30.6 0.00 0.00 0.00 87 877.0
20260905080653 7 241 25.7 33.8 0.00 0.00 0.00 87 877.0
20260905080452 7 244 25.7 37.0 0.00 0.00 0.00 87 877.1
20260905080250 7 246 27.4 40.2 0.00 0.00 0.00 87 877.1
20260905080050 7 246 30.6 40.2 0.00 0.00 0.00 87 877.1
20260905075850 7 247 25.7 38.6 0.00 0.00 0.00 87 877.0
20260905075650 7 242 25.7 38.6 0.00 0.00 0.00 87 877.1
20260905075451 7 248 29.0 41.8 0.00 0.00 0.00 87 877.1
20260905075250 7 249 29.0 41.8 0.00 0.00 0.00 87 877.2
20260905075050 7 240 29.0 38.6 0.00 0.00 0.00 87 877.1
20260905074850 7 240 27.4 35.4 0.00 0.00 0.00 87 877.0
20260905074650 7 239 30.6 38.6 0.00 0.00 0.00 87 876.9
20260905074450 7 233 32.2 45.1 0.00 0.00 0.00 87 876.9
20260905074248 7 237 29.0 43.5 0.00 0.00 0.00 87 876.9
20260905074049 7 241 29.0 37.0 0.00 0.00 0.00 87 876.9
20260905073849 7 239 27.4 38.6 0.00 0.00 0.00 87 876.9
20260905073649 7 240 30.6 41.8 0.00 0.00 0.00 87 876.8
20260905073449 7 239 27.4 35.4 0.00 0.00 0.00 87 876.8
20260905073249 7 241 30.6 41.8 0.00 0.00 0.00 87 876.7
20260905073049 7 242 33.8 41.8 0.00 0.00 0.00 87 876.8
20260905072849 7 247 32.2 40.2 0.00 0.00 0.00 87 876.8
20260905072649 7 253 30.6 41.8 0.00 0.00 0.00 87 876.8
20260905072449 7 251 29.0 38.6 0.00 0.00 0.00 87 876.8
20260905072247 7 253 29.0 38.6 0.00 0.00 0.00 87 876.9
20260905072047 7 254 27.4 38.6 0.00 0.00 0.00 87 876.8
20260905071847 7 250 27.4 38.6 0.00 0.00 0.00 87 876.8
20260905071647 7 254 27.4 38.6 0.00 0.00 0.00 87 876.9
20260905071447 7 258 24.1 38.6 0.00 0.00 0.00 87 877.0
20260905071247 7 262 27.4 45.1 0.00 0.00 0.00 87 877.0
20260905071047 7 265 25.7 45.1 0.00 0.00 0.00 87 877.1
20260905070847 7 258 25.7 40.2 0.00 0.00 0.00 87 877.0
20260905070648 7 258 25.7 40.2 0.00 0.00 0.00 87 876.9
20260905070445 7 265 25.7 37.0 0.00 0.00 0.00 87 876.8
20260905070242 7 266 25.7 32.2 0.00 0.00 0.00 87 876.7
20260905070042 7 269 22.5 33.8 0.00 0.00 0.00 87 876.6
20260905065842 7 260 25.7 38.6 0.00 0.00 0.00 87 876.5
20260905065642 7 255 24.1 38.6 0.00 0.00 0.00 87 876.5
20260905065442 7 260 20.9 35.4 0.00 0.00 0.00 87 876.5
20260905065242 7 255 22.5 35.4 0.00 0.00 0.00 87 876.5
20260905065043 7 259 22.5 38.6 0.00 0.00 0.00 87 876.6
20260905064842 7 251 24.1 33.8 0.00 0.00 0.00 86 876.5
20260905064642 7 247 24.1 37.0 0.00 0.00 0.00 87 876.5
20260905064442 7 249 25.7 37.0 0.00 0.00 0.00 87 876.6
20260905064240 7 248 22.5 32.2 0.00 0.00 0.00 87 876.6
20260905064040 7 255 20.9 38.6 0.00 0.00 0.00 86 876.6
20260905063840 7 251 22.5 33.8 0.00 0.00 0.00 86 876.5
20260905063640 7 240 22.5 29.0 0.00 0.00 0.00 86 876.4
20260905063440 7 244 24.1 40.2 0.00 0.00 0.00 86 876.3
20260905063238 7 241 20.9 37.0 0.00 0.00 0.00 86 876.3
20260905063038 7 240 19.3 29.0 0.00 0.00 0.00 86 876.3
20260905062838 7 242 19.3 27.4 0.00 0.00 0.00 86 876.2
20260905062638 7 241 22.5 32.2 0.00 0.00 0.00 86 876.2
20260905062438 7 241 24.1 32.2 0.00 0.00 0.00 86 876.3
20260905062236 7 240 27.4 38.6 0.00 0.00 0.00 86 876.5
20260905062036 7 242 25.7 38.6 0.00 0.00 0.00 86 876.5
20260905061836 8 247 25.7 37.0 0.00 0.00 0.00 86 876.6
20260905061636 8 250 25.7 40.2 0.00 0.00 0.00 86 876.6
20260905061436 8 250 25.7 45.1 0.00 0.00 0.00 86 876.6
20260905061236 8 252 25.7 45.1 0.00 0.00 0.00 86 876.6
20260905061036 8 246 24.1 35.4 0.00 0.00 0.00 86 876.5
20260905060836 8 257 19.3 32.2 0.00 0.00 0.00 86 876.5
20260905060636 8 258 22.5 32.2 0.00 0.00 0.00 86 876.5
20260905060436 8 255 22.5 37.0 0.00 0.00 0.00 86 876.5
20260905060234 8 253 25.7 37.0 0.00 0.00 0.00 86 876.5
20260905060034 8 255 25.7 40.2 0.00 0.00 0.00 85 876.6
20260905055834 8 254 24.1 35.4 0.00 0.00 0.00 85 876.7
20260905055632 8 263 25.7 35.4 0.00 0.00 0.00 85 876.8
20260905055432 8 270 25.7 40.2 0.00 0.00 0.00 85 876.7
20260905055232 8 270 25.7 38.6 0.00 0.00 0.00 85 876.7
20260905055032 8 274 27.4 38.6 0.00 0.00 0.00 85 876.6
20260905054832 8 266 30.6 38.6 0.00 0.00 0.00 85 876.6
20260905054632 8 261 29.0 38.6 0.00 0.00 0.00 85 876.5
20260905054432 8 263 27.4 37.0 0.00 0.00 0.00 85 876.4
20260905054221 8 261 25.7 37.0 0.00 0.00 0.00 85 876.3
20260905054021 8 261 24.1 35.4 0.00 0.00 0.00 85 876.3
20260905053821 8 267 20.9 32.2 0.00 0.00 0.00 85 876.3
20260905053621 8 271 22.5 33.8 0.00 0.00 0.00 85 876.3
20260905053421 8 267 22.5 30.6 0.00 0.00 0.00 85 876.3
20260905053221 8 256 24.1 35.4 0.00 0.00 0.00 84 876.5
20260905053021 8 260 24.1 37.0 0.00 0.00 0.00 84 876.5
20260905052821 8 268 25.7 41.8 0.00 0.00 0.00 84 876.3
20260905052621 8 271 24.1 33.8 0.00 0.00 0.00 84 876.3
20260905052421 8 270 24.1 38.6 0.00 0.00 0.00 84 876.3
20260905052219 8 265 24.1 32.2 0.00 0.00 0.00 84 876.3
20260905052019 8 271 24.1 33.8 0.00 0.00 0.00 84 876.3
20260905051820 8 269 24.1 30.6 0.00 0.00 0.00 84 876.2
20260905051618 8 265 25.7 38.6 0.00 0.00 0.00 84 876.2
20260905051418 8 263 25.7 32.2 0.00 0.00 0.00 84 876.0
20260905051218 8 260 29.0 37.0 0.00 0.00 0.00 84 876.0
20260905051019 8 254 29.0 38.6 0.00 0.00 0.00 84 876.0
20260905050819 8 251 32.2 38.6 0.00 0.00 0.00 83 875.8
20260905050619 8 259 30.6 38.6 0.00 0.00 0.00 83 875.7
20260905050419 8 262 29.0 38.6 0.00 0.00 0.00 83 875.7
20260905050217 8 265 27.4 35.4 0.00 0.00 0.00 83 875.7
20260905050017 9 267 25.7 30.6 0.00 0.00 0.00 83 875.8
20260905045817 9 272 25.7 35.4 0.00 0.00 0.00 83 875.9
20260905045617 9 273 27.4 41.8 0.00 0.00 0.00 83 876.0
20260905045417 9 263 32.2 48.3 0.00 0.00 0.00 83 876.1
20260905045217 9 260 35.4 48.3 0.00 0.00 0.00 83 876.1
20260905045018 9 263 30.6 43.5 0.00 0.00 0.00 83 876.0
20260905044815 9 268 27.4 37.0 0.00 0.00 0.00 82 875.9
20260905044615 9 269 29.0 37.0 0.00 0.00 0.00 82 875.9
20260905044415 9 261 30.6 43.5 0.00 0.00 0.00 82 875.9
20260905044213 9 257 30.6 40.2 0.00 0.00 0.00 82 875.8
20260905044013 9 264 27.4 41.8 0.00 0.00 0.00 82 875.8
20260905043813 9 270 30.6 41.8 0.00 0.00 0.00 82 875.7
20260905043613 9 269 29.0 40.2 0.00 0.00 0.00 83 875.7
20260905043413 9 267 29.0 37.0 0.00 0.00 0.00 83 875.7
20260905043212 9 263 29.0 40.2 0.00 0.00 0.00 83 875.8
20260905043012 9 259 27.4 37.0 0.00 0.00 0.00 83 875.9
20260905042812 9 260 29.0 38.6 0.00 0.00 0.00 83 875.9
20260905042612 9 260 24.1 38.6 0.00 0.00 0.00 82 875.9
20260905042412 9 261 27.4 37.0 0.00 0.00 0.00 83 875.8
20260905042211 8 259 32.2 43.5 0.00 0.00 0.00 83 875.8
20260905042010 8 263 30.6 45.1 0.00 0.00 0.00 83 875.8
20260905041810 8 263 27.4 45.1 0.00 0.00 0.00 83 875.8
20260905041610 8 262 27.4 37.0 0.00 0.00 0.00 83 875.7
20260905041410 8 260 29.0 37.0 0.00 0.00 0.00 83 875.6
20260905041210 8 259 29.0 38.6 0.00 0.00 0.00 82 875.5
20260905041010 8 256 32.2 38.6 0.00 0.00 0.00 82 875.4
20260905040811 9 257 30.6 37.0 0.00 0.00 0.00 82 875.5
20260905040611 9 257 24.1 37.0 0.00 0.00 0.00 82 875.6
20260905040411 9 264 24.1 33.8 0.00 0.00 0.00 82 875.7
20260905040209 9 261 32.2 40.2 0.00 0.00 0.00 82 875.7
20260905040009 10 268 29.0 40.2 0.00 0.00 0.00 81 875.8
20260905035809 10 269 25.7 37.0 0.00 0.00 0.00 81 875.8
20260905035609 10 262 25.7 33.8 0.00 0.00 0.00 81 875.7
20260905035409 10 260 25.7 32.2 0.00 0.00 0.00 81 875.6
20260905035209 10 260 24.1 30.6 0.00 0.00 0.00 81 875.5
20260905035009 10 259 22.5 30.6 0.00 0.00 0.00 81 875.5
20260905034809 10 259 25.7 32.2 0.00 0.00 0.00 81 875.5
20260905034609 10 253 25.7 35.4 0.00 0.00 0.00 81 875.4
20260905034409 10 252 25.7 35.4 0.00 0.00 0.00 81 875.4
20260905034207 10 251 25.7 37.0 0.00 0.00 0.00 81 875.4
20260905034005 10 257 27.4 38.6 0.00 0.00 0.00 82 875.4
20260905033805 10 260 25.7 33.8 0.00 0.00 0.00 82 875.4
20260905033605 10 262 25.7 35.4 0.00 0.00 0.00 82 875.3
20260905033405 10 260 27.4 35.4 0.00 0.00 0.00 82 875.3
20260905033205 10 260 25.7 33.8 0.00 0.00 0.00 82 875.3
20260905033005 10 261 27.4 33.8 0.00 0.00 0.00 82 875.3
20260905032805 10 265 27.4 33.8 0.00 0.00 0.00 82 875.2
20260905032605 10 260 25.7 32.2 0.00 0.00 0.00 82 875.2
20260905032405 10 256 27.4 33.8 0.00 0.00 0.00 82 875.2
20260905032203 10 257 27.4 33.8 0.00 0.00 0.00 82 875.2
20260905032003 10 257 27.4 33.8 0.00 0.00 0.00 82 875.2
20260905031804 10 257 25.7 32.2 0.00 0.00 0.00 82 875.3
20260905031603 10 254 25.7 33.8 0.00 0.00 0.00 82 875.3
20260905031403 10 252 29.0 37.0 0.00 0.00 0.00 82 875.3
20260905031154 10 255 27.4 37.0 0.00 0.00 0.00 82 875.5
20260905030959 10 259 29.0 38.6 0.00 0.00 0.00 82 875.6
20260905030954 10 259 29.0 40.2 0.00 0.00 0.00 82 875.6
20260905030753 10 254 32.2 40.2 0.00 0.00 0.00 82 875.6
20260905030553 10 259 29.0 38.6 0.00 0.00 0.00 82 875.6
20260905030353 10 259 27.4 35.4 0.00 0.00 0.00 82 875.5
20260905030151 10 260 29.0 38.6 0.00 0.00 0.00 82 875.5
20260905025951 10 263 25.7 35.4 0.00 0.00 0.00 81 875.6
20260905025751 10 265 25.7 30.6 0.00 0.00 0.00 82 875.6
20260905025551 10 262 25.7 33.8 0.00 0.00 0.00 81 875.6
20260905025352 10 261 29.0 35.4 0.00 0.00 0.00 81 875.5
20260905025151 10 257 32.2 43.5 0.00 0.00 0.00 81 875.5
20260905024951 10 260 25.7 33.8 0.00 0.00 0.00 81 875.5
20260905024751 10 264 24.1 40.2 0.00 0.00 0.00 81 875.5
20260905024550 10 268 29.0 40.2 0.00 0.00 0.00 81 875.4
20260905024350 10 260 27.4 38.6 0.00 0.00 0.00 81 875.4
20260905024148 10 259 24.1 32.2 0.00 0.00 0.00 81 875.4
20260905023948 10 261 27.4 33.8 0.00 0.00 0.00 81 875.5
20260905023748 10 265 24.1 29.0 0.00 0.00 0.00 81 875.6
20260905023548 10 265 25.7 32.2 0.00 0.00 0.00 81 875.5
20260905023348 10 262 32.2 43.5 0.00 0.00 0.00 81 875.5
20260905023146 10 259 30.6 43.5 0.00 0.00 0.00 81 875.5
20260905022946 10 263 32.2 48.3 0.00 0.00 0.00 81 875.5
20260905022746 10 253 37.0 48.3 0.00 0.00 0.00 81 875.6
20260905022546 10 261 29.0 48.3 0.00 0.00 0.00 81 875.6
20260905022346 10 265 27.4 35.4 0.00 0.00 0.00 81 875.6
20260905022144 10 261 29.0 38.6 0.00 0.00 0.00 81 875.6
20260905021945 10 262 29.0 38.6 0.00 0.00 0.00 81 875.7
20260905021745 10 265 29.0 40.2 0.00 0.00 0.00 81 875.7
20260905021545 10 267 29.0 43.5 0.00 0.00 0.00 81 875.7
20260905021345 10 271 33.8 43.5 0.00 0.00 0.00 81 875.7
20260905021145 10 271 32.2 43.5 0.00 0.00 0.00 81 875.7
20260905020945 10 262 29.0 43.5 0.00 0.00 0.00 81 875.7
20260905020745 10 262 29.0 43.5 0.00 0.00 0.00 81 875.6
20260905020545 10 259 32.2 43.5 0.00 0.00 0.00 81 875.6
20260905020344 10 262 32.2 41.8 0.00 0.00 0.00 82 875.6
20260905020143 10 263 30.6 41.8 0.00 0.00 0.00 81 875.5
20260905015943 10 265 30.6 37.0 0.00 0.00 0.00 81 875.5
20260905015743 10 270 29.0 35.4 0.00 0.00 0.00 81 875.6
20260905015543 10 269 29.0 37.0 0.00 0.00 0.00 81 875.6
20260905015343 10 265 30.6 37.0 0.00 0.00 0.00 81 875.6
20260905015142 10 266 30.6 38.6 0.00 0.00 0.00 81 875.6
20260905014942 10 266 32.2 46.7 0.00 0.00 0.00 81 875.5
20260905014743 10 269 29.0 46.7 0.00 0.00 0.00 81 875.6
20260905014542 10 270 25.7 33.8 0.00 0.00 0.00 81 875.6
20260905014343 10 266 27.4 41.8 0.00 0.00 0.00 81 875.7
20260905014141 10 258 29.0 41.8 0.00 0.00 0.00 81 875.7
20260905013941 10 259 25.7 33.8 0.00 0.00 0.00 81 875.7
20260905013741 10 264 27.4 41.8 0.00 0.00 0.00 81 875.7
20260905013541 10 260 25.7 33.8 0.00 0.00 0.00 81 875.6
20260905013341 10 270 27.4 37.0 0.00 0.00 0.00 81 875.6
20260905013141 10 275 32.2 37.0 0.00 0.00 0.00 81 875.6
20260905012941 10 272 27.4 37.0 0.00 0.00 0.00 81 875.6
20260905012741 10 271 27.4 40.2 0.00 0.00 0.00 81 875.6
20260905012541 10 272 30.6 45.1 0.00 0.00 0.00 81 875.5
20260905012339 10 278 33.8 48.3 0.00 0.00 0.00 81 875.5
20260905012137 10 278 32.2 48.3 0.00 0.00 0.00 81 875.5
20260905011937 10 274 25.7 40.2 0.00 0.00 0.00 82 875.5
20260905011738 10 275 24.1 35.4 0.00 0.00 0.00 81 875.5
20260905011537 10 278 27.4 35.4 0.00 0.00 0.00 81 875.5
20260905011337 10 280 30.6 40.2 0.00 0.00 0.00 81 875.6
20260905011137 10 275 27.4 38.6 0.00 0.00 0.00 81 875.7
20260905010938 10 273 27.4 35.4 0.00 0.00 0.00 81 875.7
20260905010737 10 278 22.5 35.4 0.00 0.00 0.00 81 875.6
20260905010537 10 275 24.1 33.8 0.00 0.00 0.00 81 875.6
20260905010337 10 276 24.1 33.8 0.00 0.00 0.00 81 875.6
20260905010135 10 273 20.9 32.2 0.00 0.00 0.00 81 875.6
20260905005935 10 272 25.7 35.4 0.00 0.00 0.00 81 875.5
20260905005736 10 273 24.1 32.2 0.00 0.00 0.00 81 875.5
20260905005534 10 276 22.5 30.6 0.00 0.00 0.00 81 817.8
20260905005334 10 276 22.5 30.6 0.00 0.00 0.00 81 760.1
20260905005125 10 281 27.4 37.0 0.00 0.00 0.00 81 875.3
20260905004923 10 283 30.6 40.2 0.00 0.00 0.00 81 875.3
20260905004723 10 284 27.4 37.0 0.00 0.00 0.00 81 875.3
20260905004523 10 274 25.7 35.4 0.00 0.00 0.00 81 875.3
20260905004323 10 278 27.4 35.4 0.00 0.00 0.00 81 875.3
20260905004123 10 280 29.0 37.0 0.00 0.00 0.00 81 875.2
20260905003924 10 278 30.6 38.6 0.00 0.00 0.00 81 875.2
20260905003723 10 277 30.6 38.6 0.00 0.00 0.00 81 875.2
20260905003523 10 274 25.7 38.6 0.00 0.00 0.00 81 875.2
20260905003323 11 280 25.7 35.4 0.00 0.00 0.00 81 875.2
20260905003121 11 286 24.1 32.2 0.00 0.00 0.00 81 875.2
20260905002921 11 272 20.9 29.0 0.00 0.00 0.00 81 875.3
20260905002721 11 269 19.3 25.7 0.00 0.00 0.00 81 875.2
20260905002521 11 270 17.7 24.1 0.00 0.00 0.00 81 875.1
20260905002321 11 270 16.1 20.9 0.00 0.00 0.00 81 875.0
20260905002121 11 259 17.7 24.1 0.00 0.00 0.00 81 875.1
20260905001922 11 259 17.7 20.9 0.00 0.00 0.00 81 875.1
20260905001721 11 270 16.1 22.5 0.00 0.00 0.00 80 875.1
20260905001522 11 272 19.3 25.7 0.00 0.00 0.00 80 875.0
20260905001321 11 268 17.7 25.7 0.00 0.00 0.00 80 874.9
20260905001119 11 268 14.5 20.9 0.00 0.00 0.00 80 875.0
20260905000919 11 265 16.1 24.1 0.00 0.00 0.00 80 875.0
20260905000719 11 255 19.3 27.4 0.00 0.00 0.00 80 875.0
20260905000519 11 257 20.9 27.4 0.00 0.00 0.00 80 875.0
20260905000319 11 267 19.3 25.7 0.00 0.00 0.00 79 874.9
20260905000119 11 265 17.7 24.1 0.00 0.00 0.00 79 874.8
20260904235919 11 260 19.3 24.1 0.00 0.00 0.00 79 874.8
20260904235719 11 257 22.5 29.0 0.00 0.00 0.00 79 874.8
20260904235519 11 259 20.9 29.0 0.00 0.00 0.00 79 874.8
20260904235319 12 259 17.7 27.4 0.00 0.00 0.00 79 874.7
20260904235223 12 261 19.3 25.7 0.00 0.00 0.00 79 874.7
20260904235117 12 261 19.3 25.7 0.00 0.00 0.00 79 874.7
20260904234917 12 260 19.3 24.1 0.00 0.00 0.00 78 874.7
20260904234717 12 254 19.3 25.7 0.00 0.00 0.00 78 874.7
20260904234517 12 242 19.3 25.7 0.00 0.00 0.00 78 874.6
20260904234317 12 244 19.3 24.1 0.00 0.00 0.00 78 874.6
20260904234115 12 256 17.7 25.7 0.00 0.00 0.00 78 874.6
20260904233915 12 257 20.9 30.6 0.00 0.00 0.00 78 874.6
20260904233715 12 256 19.3 27.4 0.00 0.00 0.00 78 874.6
20260904233515 12 257 20.9 27.4 0.00 0.00 0.00 77 874.6
20260904233315 12 256 22.5 33.8 0.00 0.00 0.00 77 874.6
20260904233113 12 257 19.3 33.8 0.00 0.00 0.00 77 874.6
20260904232913 13 252 22.5 33.8 0.00 0.00 0.00 77 874.6
20260904232713 13 261 24.1 32.2 0.00 0.00 0.00 77 874.6
20260904232513 13 265 24.1 30.6 0.00 0.00 0.00 76 874.5
20260904232313 13 268 22.5 32.2 0.00 0.00 0.00 76 874.5
20260904232113 13 262 22.5 30.6 0.00 0.00 0.00 75 874.5
20260904231913 13 259 20.9 30.6 0.00 0.00 0.00 75 874.5
20260904231713 14 266 17.7 25.7 0.00 0.00 0.00 75 874.5
20260904231513 14 270 17.7 25.7 0.00 0.00 0.00 75 874.5
20260904231111 15 269 20.9 32.2 0.00 0.00 0.00 74 874.4
20260904230911 15 263 25.7 38.6 0.00 0.00 0.00 74 874.4
20260904230711 15 270 19.3 38.6 0.00 0.00 0.00 73 874.5
20260904230510 15 279 17.7 27.4 0.00 0.00 0.00 73 874.4
20260904230310 16 263 29.0 49.9 0.00 0.00 0.00 72 874.3
20260904230110 16 263 29.0 49.9 0.00 0.00 0.00 72 874.3
20260904225910 17 269 24.1 40.2 0.00 0.00 0.00 72 874.4
20260904225710 17 267 19.3 38.6 0.00 0.00 0.00 71 874.2
20260904225510 17 249 37.0 64.4 0.00 0.00 0.00 71 873.9
20260904225310 17 240 41.8 64.4 0.00 0.00 0.00 71 873.6
20260904225108 17 243 41.8 64.4 0.00 0.00 0.00 71 873.6
20260904224908 17 236 41.8 64.4 0.00 0.00 0.00 72 873.5
20260904224708 17 232 40.2 56.3 0.00 0.00 0.00 72 873.6
20260904224508 17 233 40.2 56.3 0.00 0.00 0.00 72 873.6
20260904224309 17 225 40.2 53.1 0.00 0.00 0.00 72 873.6
20260904224109 17 228 38.6 53.1 0.00 0.00 0.00 72 873.6
20260904223909 17 234 37.0 46.7 0.00 0.00 0.00 72 873.6
20260904223709 16 234 38.6 54.7 0.00 0.00 0.00 72 873.6
20260904223509 16 231 41.8 54.7 0.00 0.00 0.00 72 873.7
20260904223307 16 234 35.4 57.9 0.00 0.00 0.00 72 873.7
20260904223105 16 235 33.8 57.9 0.00 0.00 0.00 72 873.8
20260904222904 16 228 32.2 48.3 0.00 0.00 0.00 72 873.8
20260904222705 16 220 32.2 49.9 0.00 0.00 0.00 72 873.8
20260904222504 16 217 33.8 48.3 0.00 0.00 0.00 72 873.8
20260904222306 16 223 32.2 48.3 0.00 0.00 0.00 72 873.8
20260904222055 16 223 29.0 43.5 0.00 0.00 0.00 72 873.8
20260904221855 17 220 29.0 43.5 0.00 0.00 0.00 72 873.8
20260904221655 17 220 29.0 38.6 0.00 0.00 0.00 72 873.8
20260904221455 17 213 32.2 49.9 0.00 0.00 0.00 72 873.8
20260904221255 17 217 30.6 38.6 0.00 0.00 0.00 72 873.8
20260904221053 17 215 32.2 41.8 0.00 0.00 0.00 72 873.8
20260904220853 17 215 33.8 57.9 0.00 0.00 0.00 72 873.8
20260904220653 16 212 32.2 57.9 0.00 0.00 0.00 72 873.9
20260904220453 16 211 35.4 49.9 0.00 0.00 0.00 72 874.0
20260904220253 16 217 32.2 49.9 0.00 0.00 0.00 72 873.9
20260904220051 16 217 29.0 43.5 0.00 0.00 0.00 72 873.9
20260904215851 16 207 35.4 54.7 0.00 0.00 0.00 72 873.9
20260904215651 16 212 32.2 51.5 0.00 0.00 0.00 72 873.9
20260904215452 16 217 32.2 48.3 0.00 0.00 0.00 72 873.9
20260904215252 16 214 35.4 48.3 0.00 0.00 0.00 72 873.9
20260904215050 16 215 35.4 48.3 0.00 0.00 0.00 72 873.9
20260904214850 16 214 37.0 53.1 0.00 0.00 0.00 72 873.9
20260904214650 16 212 37.0 53.1 0.00 0.00 0.00 72 874.0
20260904214450 16 208 37.0 53.1 0.00 0.00 0.00 72 873.9
20260904214250 16 215 38.6 53.1 0.00 0.00 0.00 73 873.9
20260904214050 16 216 35.4 45.1 0.00 0.00 0.00 73 873.9
20260904213850 16 212 33.8 48.3 0.00 0.00 0.00 73 873.9
20260904213650 16 210 38.6 48.3 0.00 0.00 0.00 72 873.9
20260904213450 16 208 37.0 53.1 0.00 0.00 0.00 73 873.9
20260904213250 17 208 37.0 53.1 0.00 0.00 0.00 73 873.9
20260904213048 17 210 35.4 49.9 0.00 0.00 0.00 73 873.9
20260904212848 17 216 35.4 51.5 0.00 0.00 0.00 73 874.0
20260904212648 17 212 35.4 48.3 0.00 0.00 0.00 73 873.9
20260904212446 17 214 37.0 46.7 0.00 0.00 0.00 73 873.9
20260904212246 16 213 35.4 46.7 0.00 0.00 0.00 73 873.9
20260904212046 16 212 32.2 43.5 0.00 0.00 0.00 73 873.8
20260904211846 16 209 35.4 53.1 0.00 0.00 0.00 73 873.9
20260904211646 16 209 37.0 57.9 0.00 0.00 0.00 73 873.9
20260904211446 16 214 37.0 57.9 0.00 0.00 0.00 73 873.8
20260904211246 16 214 33.8 48.3 0.00 0.00 0.00 73 873.8
20260904211044 16 212 33.8 53.1 0.00 0.00 0.00 73 873.8
20260904210844 16 209 37.0 53.1 0.00 0.00 0.00 73 873.7
20260904210644 16 213 37.0 49.9 0.00 0.00 0.00 73 873.7
20260904210444 16 215 37.0 56.3 0.00 0.00 0.00 73 873.7
20260904210244 16 209 38.6 70.8 0.00 0.00 0.00 74 873.8
20260904210043 16 205 35.4 48.3 0.00 0.00 0.00 74 873.8
20260904205843 16 212 37.0 51.5 0.00 0.00 0.00 74 873.8
20260904205644 16 203 30.6 46.7 0.00 0.00 0.00 74 873.8
20260904205444 16 202 32.2 70.8 0.00 0.00 0.00 74 873.7
20260904205244 16 203 33.8 46.7 0.00 0.00 0.00 74 873.8
20260904205042 17 210 37.0 56.3 0.00 0.00 0.00 74 873.8
20260904204842 17 210 37.0 56.3 0.00 0.00 0.00 74 873.8
20260904204642 17 209 37.0 54.7 0.00 0.00 0.00 74 873.8
20260904204442 17 207 37.0 54.7 0.00 0.00 0.00 74 873.8
20260904204242 16 209 33.8 51.5 0.00 0.00 0.00 74 873.8
20260904204047 16 211 35.4 51.5 0.00 0.00 0.00 74 873.8
20260904203842 16 213 32.2 46.7 0.00 0.00 0.00 74 873.7
20260904203642 16 205 35.4 59.5 0.00 0.00 0.00 74 873.7
20260904203442 16 209 35.4 59.5 0.00 0.00 0.00 74 873.8
20260904203242 16 211 37.0 56.3 0.00 0.00 0.00 74 873.9
20260904203040 16 203 33.8 53.1 0.00 0.00 0.00 74 873.9
20260904202840 16 210 35.4 54.7 0.00 0.00 0.00 74 873.9
20260904202640 16 211 33.8 54.7 0.00 0.00 0.00 74 873.9
20260904202440 16 206 33.8 54.7 0.00 0.00 0.00 74 873.9
20260904202240 16 206 35.4 59.5 0.00 0.00 0.00 74 873.8
20260904201840 16 213 35.4 53.1 0.00 0.00 0.00 74 873.8
20260904201638 16 210 37.0 56.3 0.00 0.00 0.00 75 873.8
20260904201438 16 213 40.2 56.3 0.00 0.00 0.00 75 873.8
20260904201238 16 212 38.6 51.5 0.00 0.00 0.00 75 873.8
20260904201036 16 207 38.6 46.7 0.00 0.00 0.00 75 873.9
20260904200836 16 205 35.4 54.7 0.00 0.00 0.00 75 873.8
20260904200636 16 207 32.2 48.3 0.00 0.00 0.00 75 873.9
20260904200436 16 204 35.4 53.1 0.00 0.00 0.00 75 873.9
20260904200236 16 203 37.0 53.1 0.00 0.00 0.00 75 873.9
20260904200036 16 209 33.8 64.4 0.00 0.00 0.00 75 874.0
20260904195836 16 207 33.8 64.4 0.00 0.00 0.00 75 874.2
20260904195636 16 211 33.8 49.9 0.00 0.00 0.00 75 874.3
20260904195436 16 208 35.4 53.1 0.00 0.00 0.00 75 874.3